Location: Boiss�jour
(45.7416°N, 3.0605°E)
Time: 20:02:17
(UTC+00:00)

Daily predictions for brighter satellites

Satellite Brightness Start Highest point End
(mag) Time Altitude Azimuth Time Altitude Azimuth Time Altitude Azimuth
ADEOS 4.0 16:29:51 10° S 16:35:03 71° WSW 16:40:17 10° NNW
Cosmos 1340 Rocket 4.0 16:33:15 10° NNE 16:36:27 22° ENE 16:39:40 10° ESE
USA 229 DEB 4.5 16:30:53 10° NNW 16:37:26 36° NE 16:44:24 10° E
USA 229 4.5 16:30:58 10° NNW 16:37:31 36° NE 16:44:28 10° E
Meteor 1-31 Rocket 4.3 16:34:28 10° S 16:38:02 40° W 16:41:39 10° NNW
Lacrosse 5 rocket 3.2 16:39:14 10° NW 16:41:45 17° N 16:44:22 10° NNE
ATLAS 2AS CENTAUR R/B 4.1 16:36:51 10° W 16:43:56 36° NW 16:50:48 10° NNE
Cosmos 1513 Rocket 4.5 16:38:38 10° S 16:44:37 64° E 16:50:44 10° NNE
USA 276 2.8 16:41:51 10° WNW 16:44:48 37° N 16:47:45 10° ENE
Cosmos-2242 4.3 16:41:03 10° SSW 16:45:09 42° WNW 16:49:15 10° N
ATLAS CENTAUR R/B 4.2 16:35:16 10° SSW 16:46:02 38° SE 16:50:53 10° ENE
SJ 16-02 1.3 16:45:54 10° NNW 16:50:19 84° ENE 16:54:41 10° SSE
Okean 3 Rocket 3.8 16:49:14 10° N 16:53:46 82° W 16:58:14 10° S
Cosmos 1500 Rocket 4.3 16:50:26 10° N 16:54:27 32° ENE 16:58:25 10° SE
Cosmos 2034 Rocket 4.2 16:48:54 10° SSE 16:54:46 48° E 17:00:39 10° NNE
CORIOLIS 4.2 16:54:17 10° SSE 16:59:34 62° ENE 17:04:55 10° N
USA 306 3.5 16:56:06 10° W 17:00:14 48° NNW 17:04:00 12° NE
NOSS 2-1 (C) 3.9 16:57:30 10° WSW 17:00:37 41° NW 17:03:47 10° NNE
CZ-2D R/B 3.9 16:57:38 10° SE 17:01:07 33° ENE 17:04:36 10° N
NOSS 3-1 (A) 4.3 16:54:07 10° NNW 17:01:10 49° NE 17:09:24 10° ESE
USA 234 3.6 16:56:50 10° SE 17:03:21 71° SW 17:09:54 10° NW
NOSS 3-1 (C) 4.1 16:57:05 10° NW 17:04:28 70° NE 17:13:10 10° SE
SL-08 R/B 4.2 17:01:17 10° N 17:05:54 51° WNW 17:10:25 10° SW
Iridium 2 4.2 17:02:28 10° N 17:06:12 61° W 17:09:54 10° S
Cosmos 1842 Rocket 3.6 17:02:06 10° S 17:06:29 66° E 17:10:55 10° NNE
Cosmos 1833 Rocket 3.6 17:03:05 10° SSE 17:07:46 28° ESE 17:11:51 13° NE
NOSS 2-1 (D) 4.2 17:06:58 10° WSW 17:09:57 33° NW 17:13:03 10° NNE
Meteor 2-2 Rocket 4.5 17:03:57 10° S 17:09:59 86° W 17:16:03 10° N
PSLV R/B 3.7 17:09:25 10° SSE 17:12:59 53° ENE 17:16:36 10° N
CZ-4B R/B 3.6 17:08:26 10° SE 17:13:28 40° ENE 17:18:27 10° N
Sich 1 4.0 17:12:53 10° NNE 17:16:27 25° ENE 17:20:01 10° SE
Cosmos 1939 Rocket 3.2 17:12:27 10° S 17:16:35 74° W 17:20:43 10° NNW
USA 307 3.7 17:12:37 10° W 17:16:44 43° NNW 17:19:51 16° NE
ERBS 2.6 17:14:07 10° WSW 17:17:16 54° NW 17:19:27 18° NE
SMAP 3.2 17:12:42 10° SSE 17:17:21 82° WSW 17:22:02 10° NNW
ARGOS 3.7 17:12:58 10° SE 17:17:47 34° ENE 17:22:37 10° N
Cosmos 1606 3.2 17:15:12 10° SSW 17:18:54 60° W 17:22:39 10° N
H-2A R/B 2.1 17:14:14 10° SSE 17:19:20 54° ENE 17:24:19 10° N
Cosmos 1898 Rocket 3.9 17:15:06 10° N 17:20:05 41° ENE 17:25:00 10° SE
MOS 1-B Rocket 4.2 17:16:16 10° NNE 17:21:50 48° E 17:28:00 10° S
COSMOS 2455 4.1 17:19:44 10° SSE 17:24:04 21° ESE 17:25:52 18° E
ATLAS CENTAUR R/B 3.2 17:21:42 10° W 17:25:16 26° NW 17:29:04 10° NNE
Cosmos 468 Rocket 4.2 17:21:15 10° S 17:26:08 46° ESE 17:30:21 14° NE
Cosmos 2221 2.9 17:21:54 10° SSW 17:26:09 66° W 17:30:25 10° N
Cosmos 44 3.1 17:23:38 10° NW 17:28:29 81° NE 17:32:59 10° SE
Landsat 5 4.4 17:27:18 22° ENE 17:28:38 26° E 17:32:04 10° SSE
COSMO-SKYMED 1 3.0 17:29:13 14° NNE 17:32:38 40° E 17:36:43 10° SSE
Cosmos 540 Rocket 4.1 17:30:21 10° SSE 17:34:53 33° E 17:37:03 23° ENE
Cosmos 2026 Rocket 4.0 17:28:53 10° N 17:34:56 53° ENE 17:40:51 10° SSE
SL-08 RB Rocket 4.4 17:31:39 10° SE 17:35:43 31° ENE 17:39:48 10° N
deb Chang Zheng 4 3.6 17:31:53 10° SSE 17:36:03 52° ENE 17:40:16 10° N
Cosmos 2195 Rocket 4.4 17:30:59 10° N 17:37:05 65° E 17:43:13 10° SSE
CZ-2C R/B 2.7 17:33:50 10° NNE 17:38:55 49° E 17:43:54 10° S
USA 308 3.9 17:35:09 10° W 17:39:06 36° NNW 17:41:12 22° NNE
SJ-11-01 4.5 17:35:01 10° SE 17:39:34 48° ENE 17:44:09 10° N
Okean O Rocket 1.8 17:36:03 10° SE 17:40:19 48° ENE 17:44:37 10° N
Cosmos 1500 4.0 17:37:28 10° N 17:44:46 - SE 17:40:06 30° NE
Meteor 1-25 Rocket 4.1 17:38:30 10° N 17:44:05 78° E 17:49:40 10° SSE
ISS -2.6 17:41:24 10° WNW 17:44:26 29° N 17:44:55 28° NNE
Meteor 2-21 4.4 17:40:26 10° N 17:46:28 58° ENE 17:52:25 10° SSE
CZ-4C R/B 3.5 17:40:19 10° NNW 17:46:34 34° NE 17:49:48 25° ENE
YAOGAN 1 4.1 17:50:22 20° NNE 17:50:22 20° NNE 17:52:02 10° N
MOS 1-B 4.5 17:46:27 10° SSE 17:52:13 79° WSW 17:58:02 10° NNW
SKYMED 3 4.4 17:53:35 18° NNE 17:56:48 73° ESE 18:01:07 10° S
CZ-4 R/B 3.8 18:00:22 11° N 18:00:22 11° N 18:00:34 10° N
Cosmos 2084 3.4 17:53:48 10° NW 17:58:05 67° NE 17:59:42 37° ESE
Cosmos 2322 Rocket 4.2 17:56:31 10° N 17:57:36 12° NNE 17:57:36 12° NNE
Cosmos 2369 3.8 17:53:50 10° NNW 17:59:25 50° ENE 18:02:24 26° ESE
GEOS 3 Rocket 3.5 17:56:54 16° SE 18:01:05 74° NE 18:06:17 10° NW
Cosmos 1782 2.7 17:57:36 10° S 18:01:34 66° E 18:02:36 45° NE
Cosmos 1743 Rocket 4.3 17:57:43 10° NNW 18:01:57 54° W 18:06:08 10° S
Cosmos 1697 Rocket 2.5 18:02:02 10° NNW 18:07:42 83° ENE 18:13:19 10° SSE
Cosmos 1763 Rocket 3.5 18:02:40 10° SSW 18:07:43 75° WNW 18:11:17 20° NNE
Cosmos 1937 Rocket 3.4 18:02:42 10° NNW 18:08:03 74° ENE 18:13:21 10° SSE
USA 305 4.1 18:04:58 10° WNW 18:08:42 29° N 18:09:22 27° N
Cosmos 841 Rocket 3.6 18:04:21 10° S 18:09:21 52° ESE 18:10:10 47° ENE
NOSS 2-2 (C) 4.5 18:04:28 10° NNW 18:09:22 49° NE 18:10:59 40° E
Cosmos 1980 Rocket 2.4 18:04:10 10° NNW 18:09:40 48° ENE 18:10:40 43° E
USA 267 4.1 18:08:54 23° NE 18:12:16 38° NNW 18:18:12 10° W
Cosmos 1812 4.4 18:09:32 10° S 18:10:59 21° SSE 18:10:59 21° SSE
SL-16 R/B 4.0 18:09:41 10° N 18:11:40 16° NNE 18:11:40 16° NNE
Meteor 2-14 Rocket 4.4 18:08:15 10° N 18:14:25 87° W 18:20:29 10° S
Spot 2 4.4 18:14:27 19° SSE 18:18:04 62° ENE 18:23:09 10° N
Cosmos 2082 Rocket 2.4 18:12:55 10° S 18:18:22 48° ESE 18:18:33 48° ESE
SKYMED 2 3.9 18:17:49 20° N 18:20:46 64° WNW 18:25:02 10° SSW
USA 276 3.4 18:17:55 10° WNW 18:19:58 37° WNW 18:19:58 37° WNW
Lacrosse 5 rocket 3.3 18:19:13 10° NNW 18:20:53 17° N 18:20:53 17° N
Cosmos 1151 Rocket 4.0 18:18:26 10° S 18:20:53 33° SSE 18:20:53 33° SSE
COSMOS 2406 3.1 18:18:03 10° SSW 18:23:49 86° ESE 18:26:02 40° NNE
Cosmos 1933 4.5 18:20:21 10° SSW 18:24:13 43° WNW 18:27:10 16° N
Cosmos 2278 4.1 18:19:58 10° NNW 18:24:47 44° NE 18:24:47 44° NE
USA 229 DEB 4.1 18:21:41 10° NW 18:29:03 75° SW 18:36:51 10° SSE
USA 229 4.0 18:21:47 10° NW 18:29:08 76° SW 18:36:56 10° SSE
Feng Yun 1-1 Rocket 4.3 18:24:17 10° SSE 18:30:13 88° ENE 18:36:10 10° NNW
Meteor 2-21 Rocket 4.4 18:24:32 10° N 18:30:42 87° W 18:36:46 10° S
Cosmos 372 Rocket 3.8 18:29:43 10° NNW 18:34:58 80° ENE 18:35:15 77° ESE
Cosmos 2142 Rocket 4.4 18:30:56 10° S 18:37:04 89° W 18:43:18 10° N
Meteor 2-8 Rocket 4.3 18:32:01 10° S 18:38:04 66° E 18:38:41 62° ENE
Cosmos 1833 Rocket 3.5 18:46:01 10° SW 18:51:26 48° WNW 18:53:35 32° N
Cosmos 2279 Rocket 4.2 18:49:03 10° SSW 18:55:15 70° W 19:01:20 11° N
H-2A R/B 4.5 18:55:07 10° SW 18:59:03 21° W 19:02:55 10° NW
NOSS 2-2 (D) 4.4 18:57:31 10° NW 19:02:49 83° WSW 19:02:49 83° WSW
COSMOS 2455 3.0 19:03:22 10° SW 19:09:04 71° W 19:09:04 71° W
Cosmos 1655 Rocket 4.5 19:05:14 10° N 19:09:57 52° N 19:09:57 52° N
Okean O Rocket 4.3 19:13:47 10° SW 19:16:55 19° W 19:20:04 10° NW
ATLAS CENTAUR R/B 3.7 19:10:40 10° WSW 19:16:49 36° NW 19:16:49 36° NW
CZ-4C R/B 3.1 19:28:33 10° NW 19:35:02 73° WNW 19:35:02 73° WNW
BREEZE-M DEB (TANK) 4.4 19:14:19 10° SW 19:37:07 73° S 19:37:07 73° S
Cosmos 1980 Rocket 4.0 19:48:38 10° NW 19:52:30 27° W 19:52:30 27° W
Cosmos 2082 Rocket 4.2 19:57:39 10° WSW 20:00:28 24° W 20:00:28 24° W
